ORBCOMM-X 1 21576U 91050C 26035.12379367 .00000359 00000+0 11885-3 0 9992 2 21576 98.3139 101.6683 0003398 186.0997 174.0153 14.43489963815572 ORBCOMM FM01 1 23545U 95017A 26035.19799201 .00009654 00000+0 90982-3 0 9999 2 23545 69.9601 213.9975 0005915 297.3223 62.7331 14.94043989647118 ORBCOMM FM02 1 23546U 95017B 26034.94320542 .00010982 00000+0 98490-3 0 9998 2 23546 69.9606 232.9105 0007080 301.9543 58.0925 14.95943729646750 ORBCOMM FM08 1 25112U 97084A 26035.20722523 .00002193 00000+0 63848-3 0 9994 2 25112 45.0146 333.2455 0007677 342.6173 17.4415 14.46849571474962 ORBCOMM FM10 1 25113U 97084B 26035.15681365 .00001942 00000+0 57309-3 0 9993 2 25113 45.0158 336.3120 0006228 313.8075 46.2261 14.46579758650097 ORBCOMM FM11 1 25114U 97084C 26035.20230260 .00001910 00000+0 56727-3 0 9992 2 25114 45.0144 337.1567 0007087 314.5431 45.4841 14.46318214475059 ORBCOMM FM12 1 25115U 97084D 26035.16141597 .00001896 00000+0 56319-3 0 9992 2 25115 45.0151 337.0783 0006143 312.7184 47.3150 14.46345479474847 ORBCOMM FM09 1 25116U 97084E 26035.21667877 .00002024 00000+0 60049-3 0 9992 2 25116 45.0156 338.0104 0007264 302.6127 57.4024 14.46175440475056 ORBCOMM FM05 1 25117U 97084F 26035.50031769 .00002094 00000+0 61021-3 0 9998 2 25117 45.0153 331.8278 0003729 318.4755 41.5813 14.46961271474246 ORBCOMM FM06 1 25118U 97084G 26035.21931564 .00002298 00000+0 66320-3 0 9992 2 25118 45.0147 332.6311 0002636 321.0039 182.2607 14.47133890475129 ORBCOMM FM07 1 25119U 97084H 26035.20375379 .00002127 00000+0 61687-3 0 9990 2 25119 45.0141 333.4487 0004511 313.7583 46.2896 14.47138953475116 ORBCOMM FM03 1 25158U 98007B 26035.49865739 .00001385 00000+0 52358-3 0 9994 2 25158 107.9664 253.0456 0045125 204.5991 155.2996 14.35224026457369 ORBCOMM FM04 1 25159U 98007C 26035.51306512 .00001245 00000+0 47423-3 0 9999 2 25159 107.9651 256.4542 0040831 202.0613 157.8770 14.35454190457558 ORBCOMM FM17 1 25413U 98046A 26034.89425445 .00000787 00000+0 31881-3 0 9993 2 25413 44.9930 243.6072 0002261 304.9473 55.1162 14.35672199436461 ORBCOMM FM18 1 25414U 98046B 26035.38425785 .00001677 00000+0 58000-3 0 9997 2 25414 44.9912 152.3199 0002970 2.1436 357.9425 14.39346783437693 ORBCOMM FM19 1 25415U 98046C 26035.36834816 .00001771 00000+0 61218-3 0 9995 2 25415 44.9926 154.7472 0001914 345.2816 53.3433 14.39168882437642 ORBCOMM FM20 1 25416U 98046D 26035.38367616 .00001244 00000+0 45593-3 0 9990 2 25416 44.9931 161.1696 0000649 196.6607 163.4219 14.37814296437672 ORBCOMM FM16 1 25417U 98046E 26035.50550597 .00001919 00000+0 65214-3 0 9998 2 25417 44.9921 148.9376 0002630 27.9209 332.1781 14.39732301437729 ORBCOMM FM15 1 25418U 98046F 26035.33254301 .00001513 00000+0 52772-3 0 9999 2 25418 44.9953 155.6184 0002417 31.6034 328.4959 14.39353321437689 ORBCOMM FM14 1 25419U 98046G 26035.28689486 .00001544 00000+0 53280-3 0 9999 2 25419 44.9945 153.3481 0001199 14.5525 345.5358 14.39783867437659 ORBCOMM FM13 1 25420U 98046H 26035.33690464 .00001405 00000+0 50307-3 0 9998 2 25420 44.9961 163.4834 0003619 359.3970 0.6874 14.38359079436650 ORBCOMM FM21 1 25475U 98053A 26034.98608098 .00000873 00000+0 33308-3 0 9998 2 25475 45.0072 251.3114 0001409 334.9104 25.1676 14.37936391430604 ORBCOMM FM22 1 25476U 98053B 26034.98158643 .00001122 00000+0 40471-3 0 9992 2 25476 45.0061 244.1760 0002846 320.4879 39.5762 14.39146014430652 ORBCOMM FM23 1 25477U 98053C 26035.29939832 .00001017 00000+0 37825-3 0 9997 2 25477 45.0071 251.5643 0002254 320.3944 39.6740 14.38193054430800 ORBCOMM FM24 1 25478U 98053D 26035.27979928 .00001128 00000+0 40940-3 0 9991 2 25478 45.0066 248.0625 0002040 330.7555 29.3179 14.38827958430867 ORBCOMM FM25 1 25479U 98053E 26035.53374896 .00001057 00000+0 38668-3 0 9999 2 25479 45.0059 245.1646 0004323 337.9635 22.1027 14.38797448431195 ORBCOMM FM26 1 25480U 98053F 26035.28860946 .00000865 00000+0 33161-3 0 9998 2 25480 45.0056 244.5477 0006269 351.2381 8.8357 14.37740823431042 ORBCOMM FM27 1 25481U 98053G 26035.30770472 .00001152 00000+0 41685-3 0 9996 2 25481 45.0042 246.3489 0000810 13.0857 347.0012 14.38836522431092 ORBCOMM FM28 1 25482U 98053H 26035.39023134 .00001323 00000+0 47088-3 0 9995 2 25482 45.0038 183.1846 0003441 32.8090 327.2972 14.38944218431798 ORBCOMM FM30 1 25980U 99065A 26035.11323354 .00000997 00000+0 37410-3 0 9993 2 25980 45.0316 71.4484 0004221 97.1661 262.9668 14.37904055367825 ORBCOMM FM31 1 25981U 99065B 26035.02811324 .00001052 00000+0 39265-3 0 9996 2 25981 45.0230 65.2971 0002362 148.8954 211.2035 14.37826962367360 ORBCOMM FM32 1 25982U 99065C 26035.50545887 .00001050 00000+0 39922-3 0 9996 2 25982 45.0157 81.1634 0004585 131.6496 228.4745 14.36892883368006 ORBCOMM FM33 1 25983U 99065D 26035.24871701 .00001313 00000+0 45153-3 0 9990 2 25983 45.0298 335.1102 0006635 153.4029 206.7162 14.40708213369525 ORBCOMM FM36 1 25984U 99065E 26035.51139449 .00001461 00000+0 51591-3 0 9994 2 25984 45.0391 69.2968 0002448 339.9516 20.1237 14.38885322367876 ORBCOMM FM35 1 25985U 99065F 26035.45488759 .00001113 00000+0 41304-3 0 9994 2 25985 45.0393 76.5049 0002467 154.8424 205.2545 14.37787550368202 ORBCOMM FM34 1 25986U 99065G 26034.45097429 .00000922 00000+0 35092-3 0 9998 2 25986 45.0389 81.7508 0001727 50.8738 309.2264 14.37707825368173 ORBCOMM FM38 1 33060U 08031A 26035.09624975 .00002257 00000+0 30422-3 0 9991 2 33060 48.4392 289.0933 0004827 318.5412 41.5138 14.82571905949144 ORBCOMM FM41 1 33061U 08031B 26035.19857146 .00002125 00000+0 29105-3 0 9991 2 33061 48.4432 297.2156 0004153 303.1902 223.0984 14.82111611948637 ORBCOMM FM29 1 33062U 08031C 26035.50062905 .00002535 00000+0 34069-3 0 9998 2 33062 48.4388 303.2569 0005789 304.6768 225.5039 14.82280841948591 ORBCOMM FM39 1 33063U 08031D 26035.19735359 .00002336 00000+0 32799-3 0 9991 2 33063 48.4409 331.6372 0006850 274.8629 85.1504 14.80680184948169 ORBCOMM FM37 1 33064U 08031E 26035.07054575 .00002111 00000+0 29776-3 0 9995 2 33064 48.4401 320.4026 0005414 293.0787 80.2671 14.80872785948405 ORBCOMM FM40 1 33065U 08031F 26035.10194947 .00002733 00000+0 35514-3 0 9995 2 33065 48.4412 300.1558 0006206 309.4856 188.3459 14.83470129948573 VESSELSAT 1 1 37840U 11058C 26035.34774010 .00000391 00000+0 68467-4 0 9996 2 37840 19.9612 129.0165 0013490 220.3361 139.6042 14.11412669739144 ORBCOMM FM109 1 40086U 14040A 26035.29367560 .00000977 00000+0 24390-3 0 9994 2 40086 47.0048 359.7173 0002366 315.5283 44.5412 14.58665644614945 ORBCOMM FM107 1 40087U 14040B 26035.24165829 .00001051 00000+0 25925-3 0 9993 2 40087 47.0065 0.8293 0001854 274.5721 85.4953 14.58743141615016 ORBCOMM FM106 1 40088U 14040C 26035.30679402 .00001425 00000+0 26498-3 0 9999 2 40088 47.0591 163.8232 0015606 65.6029 294.6489 14.70212770617624 ORBCOMM FM111 1 40089U 14040D 26035.07014885 .00003658 00000+0 41335-3 0 9999 2 40089 47.0018 342.9655 0028891 225.3104 134.5439 14.88126208624744 ORBCOMM FM104 1 40090U 14040E 26035.41820748 .00000717 00000+0 19491-3 0 9993 2 40090 47.0059 36.4193 0016157 190.0251 170.0314 14.57112247614487 ORBCOMM FM103 1 40091U 14040F 26035.29572714 .00000939 00000+0 23594-3 0 9992 2 40091 47.0068 1.2699 0002474 272.4066 87.6537 14.58650492597980 ORBCOMM FM114 1 41179U 15081A 26034.62673649 .00000667 00000+0 17804-3 0 9996 2 41179 47.0046 273.3797 0002688 304.1175 55.9455 14.58669720538252 ORBCOMM FM119 1 41180U 15081B 26035.44670134 .00000840 00000+0 21492-3 0 9996 2 41180 46.9991 178.8607 0000586 351.0510 9.0365 14.58613458539628 ORBCOMM FM105 1 41181U 15081C 26034.87215195 .00000277 00000+0 12229-3 0 9997 2 41181 46.9997 209.2109 0002139 273.4264 86.6372 14.45462378534263 ORBCOMM FM110 1 41182U 15081D 26035.09534464 .00000814 00000+0 20931-3 0 9992 2 41182 47.0016 270.6447 0002704 189.9421 170.1411 14.58660286538190 ORBCOMM FM118 1 41183U 15081E 26035.33537093 .00000820 00000+0 21044-3 0 9994 2 41183 47.0034 269.8179 0002552 147.5637 212.5406 14.58664059538336 ORBCOMM FM112 1 41184U 15081F 26035.40688870 .00001149 00000+0 28030-3 0 9990 2 41184 46.9979 177.9940 0002084 296.4708 63.5963 14.58659594539567 ORBCOMM FM113 1 41185U 15081G 26035.45264422 .00001174 00000+0 28567-3 0 9992 2 41185 46.9992 178.1411 0001730 300.2293 59.8421 14.58663433539552 ORBCOMM FM115 1 41186U 15081H 26035.35424647 .00001047 00000+0 23604-3 0 9995 2 41186 46.9998 14.9341 0000806 345.4401 14.6464 14.63049989541765 ORBCOMM FM108 1 41187U 15081J 26035.20987863 .00001229 00000+0 29737-3 0 9999 2 41187 47.0048 90.8166 0003446 292.2008 67.8512 14.58665926540668 ORBCOMM FM117 1 41188U 15081K 26035.10677390 .00001080 00000+0 26591-3 0 9990 2 41188 47.0011 89.9806 0003710 299.1098 60.9416 14.58658699540697 ORBCOMM FM116 1 41189U 15081L 26035.42991369 .00000734 00000+0 19240-3 0 9999 2 41189 47.0011 178.2328 0001937 188.8709 171.2142 14.58641851539558